KN6RO-14 Weather Reports


time (UTC)temp
C
wind
direction
speed
KPH
gust
KPH
rain 1hr
cm
rain 24hr
cm
rain mn
cm
humidity
%
barometer
mb
20260506062408 18 53 0.0 0.0 0.00 0.00 0.00 58 1012.6
20260506042408 18 3 0.0 1.6 0.00 0.00 0.00 51 1013.2
20260506035408 18 303 0.0 1.6 0.00 0.00 0.00 52 1012.8
20260506032408 18 1 0.0 1.6 0.00 0.00 0.00 52 1013.0
20260506025408 18 16 0.0 1.6 0.00 0.00 0.00 52 1013.2
20260506022408 18 304 0.0 0.0 0.00 0.00 0.00 52 1012.8
20260506015408 18 303 0.0 1.6 0.00 0.00 0.00 51 1012.8
20260506012408 18 335 0.0 1.6 0.00 0.00 0.00 52 1012.5
20260506005408 18 8 0.0 1.6 0.00 0.00 0.00 52 1012.3
20260506002408 19 313 0.0 3.2 0.00 0.00 0.00 52 1012.3
20260505235408 20 86 0.0 0.0 0.00 0.00 0.00 51 1012.5
20260505232408 20 86 0.0 1.6 0.00 0.00 0.00 50 1012.5
20260505225408 21 86 0.0 1.6 0.00 0.00 0.00 47 1012.4
20260505222408 21 91 0.0 1.6 0.00 0.00 0.00 45 1012.8
20260505215408 21 6 0.0 1.6 0.00 0.00 0.00 44 1012.4
20260505212408 22 36 0.0 6.4 0.00 0.00 0.00 44 1012.5
20260505205408 22 132 0.0 4.8 0.00 0.00 0.00 44 1012.8
20260505202409 22 122 0.0 3.2 0.00 0.00 0.00 43 1012.7
20260505195409 22 121 1.6 3.2 0.00 0.00 0.00 40 1013.1
20260505192409 23 163 1.6 4.8 0.00 0.00 0.00 43 1013.3
20260505185409 23 68 1.6 3.2 0.00 0.00 0.00 43 1013.8
20260505182409 24 130 3.2 4.8 0.00 0.00 0.00 38 1013.9
20260505175409 25 89 1.6 4.8 0.00 0.00 0.00 41 1014.4
20260505172409 23 260 1.6 4.8 0.00 0.00 0.00 45 1014.8
20260505165409 24 218 1.6 6.4 0.00 0.00 0.00 43 1015.0
20260505162409 23 246 3.2 6.4 0.00 0.00 0.00 39 1015.2
20260505152409 22 331 1.6 4.8 0.00 0.00 0.00 49 1015.3
20260505122409 16 90 0.0 1.6 0.00 0.00 0.00 60 1014.8
20260505115409 16 41 0.0 1.6 0.00 0.00 0.00 54 1014.7
20260505112409 14 248 0.0 0.0 0.00 0.00 0.00 61 1013.9
20260505095410 13 56 0.0 1.6 0.00 0.00 0.00 57 1014.2
20260505092410 13 233 0.0 1.6 0.00 0.00 0.00 56 1014.2
20260505085410 14 256 0.0 1.6 0.00 0.00 0.00 55 1014.1
20260505082410 14 297 0.0 1.6 0.00 0.00 0.00 56 1014.3
20260505075410 13 250 0.0 1.6 0.00 0.00 0.00 59 1014.2
20260505072410 14 250 0.0 0.0 0.00 0.00 0.00 57 1014.3